{"data":{"norad_id":49453,"epoch":"2026-05-24T23:44:30.706656Z","epoch_age_seconds":72664,"freshness":"FRESH","line1":"1 49453U 21104AX  26144.98924429  .00001483  00000+0  11123-3 0  9993","line2":"2 49453  53.2194 236.6841 0001432  91.8076 268.3081 15.08850019250295","mean_motion":15.08850019,"eccentricity":0.0001432,"inclination_deg":53.2194,"raan_deg":236.6841,"arg_perigee_deg":91.8076,"mean_anomaly_deg":268.3081,"bstar":0.00011123,"rev_number":25029,"period_min":95.436920957483,"perigee_km":538.72212897237,"apogee_km":540.70340114508,"semimajor_km":6917.8497650587,"source":"CELESTRAK","updated_at":"2026-05-25T13:38:16.827372Z"}}